When you browse on this site, cookies collect data to enhance your experience and personalize the content and advertising you see.
Visit our Privacy Policy to learn more. By continuing to use the site, you agree to this use of cookies and data.
  • In Hungary
  • List of Countries
  • For 7 days
  • Water Temperature
  • Satellite Maps
  • Weather Map
  • News
  • Weather Widgets
  • user-avatar
    Login

    Hourly Weather Uige

    Today, 20 March, Wednesday

    Time Temperature Precipitation Wind Pressure Humidity
    00:00 +22°C° 0 mm 1 mps 690 mmHg 98%
    01:00 +20°C° 0 mm 0 mps 690 mmHg 98%
    02:00 +20°C° 0.1 mm 0 mps 690 mmHg 98%
    03:00 +20°C° 0.1 mm 0 mps 690 mmHg 98%
    04:00 +20°C° 0.1 mm 0 mps 690 mmHg 98%
    05:00 +22°C° 0 mm 1 mps 690 mmHg 97%
    06:00 +22°C° 0 mm 1 mps 690 mmHg 96%
    07:00 +23°C° 0 mm 1 mps 691 mmHg 95%
    08:00 +26°C° 0.2 mm 1 mps 691 mmHg 84%
    09:00 +27°C° 0.2 mm 0 mps 692 mmHg 74%
    10:00 +29°C° 0.2 mm 0 mps 692 mmHg 63%
    11:00 +31°C° 1 mm 1 mps 692 mmHg 69%
    12:00 +30°C° 1 mm 2 mps 691 mmHg 74%
    13:00 +28°C° 0 mm 3 mps 691 mmHg 84%
    14:00 +27°C° 1.7 mm 2 mps 690 mmHg 86%
    15:00 +27°C° 1.7 mm 2 mps 690 mmHg 88%
    16:00 +27°C° 1.7 mm 1 mps 689 mmHg 91%
    17:00 +26°C° 0.6 mm 1 mps 689 mmHg 92%
    18:00 +23°C° 0.6 mm 0 mps 690 mmHg 93%
    19:00 +22°C° 0.6 mm 0 mps 690 mmHg 94%
    20:00 +21°C° 0 mm 0 mps 690 mmHg 94%
    21:00 +21°C° 0 mm 0 mps 690 mmHg 94%
    22:00 +20°C° 0 mm 0 mps 690 mmHg 94%
    23:00 +20°C° 0 mm 0 mps 690 mmHg 94%

    Tomorrow, 21 March, Thursday

    Time Temperature Precipitation Wind Pressure Humidity
    00:00 +20°C° 0 mm 0 mps 689 mmHg 94%
    01:00 +19°C° 0 mm 0 mps 689 mmHg 93%
    02:00 +21°C° 0 mm 1 mps 689 mmHg 94%
    03:00 +21°C° 0 mm 1 mps 689 mmHg 94%
    04:00 +21°C° 0 mm 1 mps 689 mmHg 94%
    05:00 +21°C° 0 mm 1 mps 689 mmHg 94%
    06:00 +21°C° 0 mm 1 mps 690 mmHg 93%
    07:00 +22°C° 0 mm 1 mps 691 mmHg 93%
    08:00 +25°C° 0.1 mm 1 mps 691 mmHg 82%
    09:00 +27°C° 0.1 mm 1 mps 692 mmHg 71%
    10:00 +30°C° 0.1 mm 1 mps 693 mmHg 60%
    11:00 +31°C° 0 mm 1 mps 692 mmHg 56%
    12:00 +32°C° 0 mm 1 mps 691 mmHg 51%
    13:00 +32°C° 0 mm 1 mps 690 mmHg 47%
    14:00 +32°C° 0 mm 1 mps 690 mmHg 49%
    15:00 +32°C° 0 mm 1 mps 689 mmHg 52%
    16:00 +32°C° 0 mm 1 mps 688 mmHg 54%
    17:00 +29°C° 0 mm 1 mps 688 mmHg 59%
    18:00 +25°C° 0 mm 0 mps 688 mmHg 64%
    19:00 +23°C° 0 mm 0 mps 688 mmHg 69%
    20:00 +23°C° 0.2 mm 0 mps 689 mmHg 70%
    21:00 +22°C° 0.2 mm 0 mps 690 mmHg 72%
    22:00 +22°C° 0.2 mm 0 mps 690 mmHg 73%
    23:00 +21°C° 0 mm 0 mps 690 mmHg 76%

    Day after tomorrow, 22 March, Friday

    Time Temperature Precipitation Wind Pressure Humidity
    00:00 +23°C° 0 mm 1 mps 690 mmHg 80%
    01:00 +22°C° 0 mm 1 mps 689 mmHg 83%
    02:00 +22°C° 0 mm 1 mps 689 mmHg 86%
    03:00 +22°C° 0 mm 1 mps 689 mmHg 89%
    04:00 +22°C° 0 mm 1 mps 689 mmHg 92%
    05:00 +22°C° 0 mm 1 mps 689 mmHg 92%
    06:00 +23°C° 0 mm 1 mps 690 mmHg 92%
    07:00 +23°C° 0 mm 1 mps 690 mmHg 91%
    08:00 +26°C° 0 mm 1 mps 691 mmHg 78%
    09:00 +29°C° 0 mm 1 mps 692 mmHg 65%
    10:00 +32°C° 0 mm 1 mps 692 mmHg 51%
    11:00 +33°C° 0 mm 1 mps 692 mmHg 47%
    12:00 +35°C° 0 mm 1 mps 691 mmHg 43%
    13:00 +36°C° 0 mm 1 mps 691 mmHg 39%
    14:00 +35°C° 0 mm 1 mps 690 mmHg 44%
    15:00 +32°C° 0 mm 0 mps 689 mmHg 49%
    16:00 +31°C° 0 mm 0 mps 689 mmHg 54%
    17:00 +28°C° 0 mm 0 mps 689 mmHg 61%
    18:00 +26°C° 0 mm 0 mps 689 mmHg 69%
    19:00 +24°C° 0 mm 0 mps 689 mmHg 76%
    20:00 +25°C° 1.4 mm 1 mps 690 mmHg 83%
    21:00 +24°C° 1.4 mm 1 mps 690 mmHg 91%
    22:00 +23°C° 1.4 mm 2 mps 691 mmHg 98%
    23:00 +22°C° 0.3 mm 1 mps 690 mmHg 98%

    23 March, Saturday

    Time Temperature Precipitation Wind Pressure Humidity
    00:00 +22°C° 0.3 mm 1 mps 690 mmHg 97%
    01:00 +22°C° 0.3 mm 1 mps 689 mmHg 97%
    02:00 +22°C° 0 mm 1 mps 689 mmHg 97%
    03:00 +22°C° 0 mm 1 mps 689 mmHg 97%
    04:00 +20°C° 0 mm 2 mps 689 mmHg 98%
    05:00 +22°C° 0 mm 1 mps 689 mmHg 97%
    06:00 +22°C° 0 mm 1 mps 690 mmHg 97%
    07:00 +23°C° 0 mm 1 mps 690 mmHg 97%
    08:00 +25°C° 0.2 mm 1 mps 691 mmHg 87%
    09:00 +27°C° 0.2 mm 1 mps 692 mmHg 78%
    10:00 +29°C° 0.2 mm 1 mps 692 mmHg 68%
    11:00 +31°C° 0.3 mm 1 mps 692 mmHg 63%
    12:00 +32°C° 0.3 mm 2 mps 691 mmHg 58%
    13:00 +34°C° 0.3 mm 2 mps 690 mmHg 52%
    14:00 +32°C° 1.2 mm 2 mps 690 mmHg 60%
    15:00 +31°C° 1.2 mm 2 mps 689 mmHg 68%
    16:00 +29°C° 1.2 mm 2 mps 688 mmHg 76%
    17:00 +28°C° 6.4 mm 2 mps 689 mmHg 83%
    18:00 +26°C° 6.4 mm 1 mps 689 mmHg 90%
    19:00 +24°C° 6.4 mm 1 mps 689 mmHg 97%
    20:00 +24°C° 1.8 mm 1 mps 690 mmHg 97%
    21:00 +23°C° 1.8 mm 1 mps 691 mmHg 98%
    22:00 +23°C° 1.8 mm 1 mps 691 mmHg 98%
    23:00 +23°C° 0.4 mm 1 mps 691 mmHg 98%

    24 March, Sunday

    Time Temperature Precipitation Wind Pressure Humidity
    00:00 +23°C° 0.4 mm 1 mps 690 mmHg 99%
    01:00 +23°C° 0.4 mm 1 mps 690 mmHg 99%
    02:00 +22°C° 0 mm 1 mps 690 mmHg 99%
    03:00 +22°C° 0 mm 1 mps 690 mmHg 99%
    04:00 +22°C° 0 mm 1 mps 689 mmHg 99%
    05:00 +22°C° 0 mm 1 mps 690 mmHg 98%
    06:00 +22°C° 0 mm 1 mps 690 mmHg 98%
    07:00 +22°C° 0 mm 1 mps 691 mmHg 98%
    08:00 +24°C° 0 mm 1 mps 691 mmHg 91%
    09:00 +25°C° 0 mm 2 mps 692 mmHg 84%
    10:00 +27°C° 0 mm 2 mps 692 mmHg 77%
    11:00 +28°C° 0.1 mm 2 mps 691 mmHg 70%
    12:00 +30°C° 0.1 mm 2 mps 691 mmHg 63%
    13:00 +31°C° 0.1 mm 1 mps 690 mmHg 57%
    14:00 +30°C° 1 mm 1 mps 690 mmHg 65%
    15:00 +29°C° 1 mm 1 mps 689 mmHg 73%
    16:00 +28°C° 1 mm 1 mps 689 mmHg 81%
    17:00 +27°C° 1.1 mm 1 mps 689 mmHg 86%
    18:00 +25°C° 1.1 mm 1 mps 690 mmHg 91%
    19:00 +23°C° 1.1 mm 1 mps 690 mmHg 95%
    20:00 +23°C° 0.2 mm 1 mps 690 mmHg 96%
    21:00 +23°C° 0.2 mm 1 mps 690 mmHg 97%
    22:00 +23°C° 0.2 mm 1 mps 691 mmHg 97%
    23:00 +22°C° 0 mm 1 mps 690 mmHg 98%

    25 March, Monday

    Time Temperature Precipitation Wind Pressure Humidity
    00:00 +22°C° 0 mm 1 mps 690 mmHg 98%
    01:00 +22°C° 0 mm 1 mps 689 mmHg 98%
    02:00 +21°C° 0 mm 1 mps 689 mmHg 97%
    03:00 +21°C° 0 mm 1 mps 688 mmHg 97%
    04:00 +21°C° 0 mm 1 mps 688 mmHg 97%
    05:00 +21°C° 0 mm 1 mps 689 mmHg 95%
    06:00 +22°C° 0 mm 1 mps 690 mmHg 94%
    07:00 +20°C° 0 mm 0 mps 690 mmHg 93%
    08:00 +22°C° 0 mm 0 mps 691 mmHg 85%
    09:00 +26°C° 0 mm 1 mps 691 mmHg 77%
    10:00 +27°C° 0 mm 1 mps 692 mmHg 69%
    11:00 +29°C° 0 mm 1 mps 692 mmHg 64%
    12:00 +28°C° 0 mm 0 mps 691 mmHg 59%
    13:00 +30°C° 0 mm 0 mps 690 mmHg 55%
    14:00 +29°C° 0.2 mm 0 mps 690 mmHg 58%
    15:00 +30°C° 0.2 mm 1 mps 690 mmHg 61%
    16:00 +30°C° 0.2 mm 1 mps 689 mmHg 64%
    17:00 +28°C° 0.8 mm 1 mps 689 mmHg 74%
    18:00 +26°C° 0.8 mm 1 mps 690 mmHg 84%
    19:00 +24°C° 0.8 mm 1 mps 690 mmHg 94%
    20:00 +24°C° 0 mm 1 mps 690 mmHg 95%
    21:00 +21°C° 0 mm 0 mps 690 mmHg 96%
    22:00 +21°C° 0 mm 0 mps 691 mmHg 96%
    23:00 +21°C° 0 mm 0 mps 690 mmHg 97%
    Show more